Regional Weather Roundup
Issued by NWS Mt. Holly, NJ

Home | Current Version | Previous Version | Text Only | Print | Product List | Glossary On
Versions: 1 2 3 4 5 6 7 8 9 10 11 12 13 14 15 16 17 18 19 20 21 22 23 24 25 26 27 28 29 30 31 32 33 34 35 36 37 38 39 40 41 42 43 44 45 46 47 48 49 50
000
ASUS41 KPHI 260212
RWRPHI

REGIONAL WEATHER ROUNDUP
NATIONAL WEATHER SERVICE MOUNT HOLLY NJ
1000 PM EDT SAT MAR 25 2017

NOTE:  "FAIR" INDICATES FEW OR NO CLOUDS BELOW 12,000 FEET WITH NO
SIGNIFICANT WEATHER AND/OR OBSTRUCTIONS TO VISIBILITY.

 * = STATION DOES NOT REPORT PRECIPITATION (E.G. RAIN, SNOW, ETC.)
        OR FOG.

NJZ015>026-260300-
SOUTHERN NEW JERSEY

CITY           SKY/WX    TMP DP  RH WIND       PRES   REMARKS
POMONA         CLOUDY    46  39  76 E12       30.32R
WILDWOOD*      PTCLDY    46  41  82 E15G22    30.29R
MILLVILLE      CLOUDY    49  42  77 E12       30.29R
WRIGHTSTOWN    PTCLDY    43  40  87 NE10      30.31R
MOUNT HOLLY    MOCLDY    44  40  85 NE7       30.33R
TRENTON        CLOUDY    45  39  79 E12       30.34R

$$
NJZ001>014-260300-
NORTHERN NEW JERSEY

CITY           SKY/WX    TMP DP  RH WIND       PRES   REMARKS
SUSSEX         CLOUDY    38  35  89 NE10      30.38R WCI  31
ANDOVER*         N/A     38  36  92 VRB7      30.36R WCI  33
MORRISTOWN     CLOUDY    43  39  87 NE8       30.38R
NEWARK         CLOUDY    46  41  82 SE5       30.36S
TETERBORO      DRIZZLE   43  38  82 N10       30.37R
CALDWELL       CLOUDY    42  38  85 VRB5      30.38R
SOMERVILLE     CLOUDY    45  39  79 E5        30.35R
ALLAIRE*       MOCLDY    42  39  89 E12       30.36R
TOMS RIVER*    MOCLDY    43  41  93 NE10      30.36R

$$
PAZ043-044-047-054-055-060>062-066>071-260300-
EASTERN PENNSYLVANIA

CITY           SKY/WX    TMP DP  RH WIND       PRES   REMARKS
PHILADELPHIA   MOCLDY    47  40  76 E12       30.32R
NORTH PHILA    CLOUDY    47  40  76 E14       30.35R
BLUE BELL*     MOCLDY    45  39  81 E9        30.31R
DOYLESTOWN     PTCLDY    46  41  82 VRB3      30.32R
QUAKERTOWN*    CLOUDY    48  39  71 E6G16     30.33R
PERKASIE*      CLOUDY    46  39  76 E9        30.33R
POTTSTOWN      PTCLDY    49  40  71 E7G16     30.33R
LANCASTER      PTCLDY    52  45  77 E8        30.27R
COATESVILLE    CLOUDY    52  45  76 E13       30.28S
READING        CLOUDY    53  43  68 E10G17    30.29R
ALLENTOWN      CLOUDY    45  37  73 NE15G22   30.33R
MOUNT POCONO   FOG       37  37 100 E6        30.30R VSB 1/4 WCI  32
HAZLETON       CLOUDY    43  41  93 E3        30.31F
LEHIGHTON      CLOUDY    46  41  81 NE8       30.33R
WILKES BARRE   CLOUDY    43  41  93 CALM      30.32R

$$
DEZALL-MDZ008-012-015-019-020-260300-
DELAWARE AND EASTERN MARYLAND

CITY           SKY/WX    TMP DP  RH WIND       PRES   REMARKS
WILMINGTON     PTCLDY    50  42  74 E15       30.30R
DOVER          CLOUDY    50  47  90 NE10      30.27R
GEORGETOWN     PTCLDY    49  44  83 E12       30.27R
EASTON         MOCLDY    59  46  63 E13       30.26R
ABERDEEN       CLOUDY    54  47  79 E13G23    30.27R
PATUXENT       MOCLDY    53  51  93 CALM      30.19S
OCEAN CITY     PTCLDY    53  47  79 N9        30.24R
WALLOPS ISLAND PTCLDY    53  49  86 S7        30.23S
CAMBRIDGE      CLOUDY    63  54  72 NE9       30.22R
SALISBURY      CLOUDY    62  53  72 NE12      30.22R

$$
PAZ001-021-NYZ056-072-MDZ011-DCZ001-260300-
OTHER NEARBY LOCATIONS

CITY           SKY/WX    TMP DP  RH WIND       PRES   REMARKS
HARRISBURG     MOCLDY    56  44  64 E12       30.25R
WILLIAMSPORT   CLOUDY    46  38  73 N3        30.30F
BINGHAMTON     FOG       34  34 100 E8        30.32F VSB 1/4 WCI  27
NEW YORK CITY  CLOUDY    45  41  86 NE8       30.38S
BALTIMORE      CLOUDY    65  53  65 E23G30    30.21R
WASHINGTON DC  CLOUDY    67  52  58 S8        30.18R

$$



USA.gov is the U.S. government's official web portal to all federal, state and local government web resources and services.